Fremont, MI

4:27 PM EST on December 06, 2019 (GMT -0500)
Fremont

Weather History for KFFX - October, 2019

Change the Weather History Date:

Sunday, October 6, 2019

  Actual Average (KMKG) Record (KMKG)
Temperature  
Mean Temperature 58 °F -  
Max Temperature 64 °F 61 °F 82 °F (1900)
Min Temperature 51 °F 44 °F 28 °F (2003)
Degree Days  
Heating Degree Days 8    
Growing Degree Days 8 (Base 50)    
Moisture  
Dew Point 45 °F    
Average Humidity 64    
Maximum Humidity 99    
Minimum Humidity 35    
Precipitation  
Precipitation 0.00 in - - ()
Sea Level Pressure  
Sea Level Pressure 29.99 in    
Wind  
Wind Speed 7 mph ()    
Max Wind Speed 15 mph    
Max Gust Speed 21 mph    
Visibility 9.6 miles    
Events      
Averages and records for this station are not official NWS values.
T = Trace of Precipitation, MM = Missing Value Source: Averaged Metar Reports

Daily Weather History Graph

Daily Weather History Graph

Search for Another Location

Airport or City:

Astronomy

Oct. 06, 2019 Rise Set
Actual Time 7:46 AM EDT 7:16 PM EDT
Civil Twilight 7:18 AM EDT 7:45 PM EDT
Nautical Twilight 6:45 AM EDT 8:18 PM EDT
Astronomical Twilight 6:11 AM EDT 8:51 PM EDT
Moon 4:07 PM EDT 12:31 AM EDT
Length of Visible Light 12h 26m
Length of Day
11h 29m
First Quarter, 59% of the Moon is Illuminated
Oct 6
First Quarter
Oct 13
Full
Oct 21
Last Quarter
Oct 27
New
Nov 4
First Quarter

Hourly Weather History & Observations

Time (EDT) Temp. Dew Point Humidity Pressure Visibility Wind Dir Wind Speed Gust Speed Precip Events Conditions
12:15 AM 53.6 °F 52.2 °F 95% 29.89 in 10.0 mi Calm Calm - N/A   Overcast
12:35 AM 53.6 °F 52.3 °F 95% 29.89 in 10.0 mi South 3.5 mph - N/A   Overcast
12:55 AM 53.8 °F 52.7 °F 96% 29.89 in 5.0 mi South 6.9 mph - N/A   Heavy Drizzle
12:59 AM 53.8 °F 52.9 °F 97% 29.89 in 5.0 mi South 6.9 mph - N/A   Drizzle
1:18 AM 54.0 °F 53.6 °F 99% 29.88 in 4.0 mi South 6.9 mph - N/A   Heavy Drizzle
1:35 AM 54.5 °F 53.8 °F 97% 29.88 in 4.0 mi South 8.1 mph - N/A   Heavy Drizzle
1:55 AM 55.4 °F 54.9 °F 98% 29.88 in 4.0 mi SSW 8.1 mph - N/A   Drizzle
1:56 AM 55.4 °F 54.9 °F 98% 29.88 in 4.0 mi SSW 8.1 mph - N/A   Drizzle
2:15 AM 56.7 °F 56.3 °F 99% 29.87 in 7.0 mi SSW 9.2 mph - N/A   Drizzle
2:38 AM 58.1 °F 57.2 °F 97% 29.87 in 10.0 mi SW 9.2 mph 16.1 mph N/A   Overcast
2:56 AM 58.6 °F 57.2 °F 95% 29.87 in 10.0 mi SW 9.2 mph 16.1 mph N/A   Overcast
3:15 AM 58.6 °F 57.2 °F 95% 29.87 in 10.0 mi WSW 11.5 mph - N/A   Overcast
3:16 AM 58.6 °F 57.2 °F 95% 29.88 in 10.0 mi WSW 10.4 mph - N/A   Overcast
3:35 AM 58.6 °F 56.5 °F 93% 29.88 in 10.0 mi WSW 11.5 mph 16.1 mph N/A   Overcast
3:36 AM 58.6 °F 56.5 °F 93% 29.87 in 10.0 mi WSW 11.5 mph 16.1 mph N/A   Overcast
3:59 AM 58.5 °F 56.1 °F 92% 29.87 in 10.0 mi WSW 10.4 mph - N/A   Overcast
4:35 AM 58.1 °F 55.8 °F 92% 29.88 in 10.0 mi WSW 9.2 mph - N/A   Overcast
4:55 AM 58.1 °F 55.4 °F 91% 29.88 in 10.0 mi WSW 9.2 mph 16.1 mph N/A   Overcast
5:15 AM 58.1 °F 55.0 °F 90% 29.88 in 10.0 mi WSW 9.2 mph 16.1 mph N/A   Overcast
5:38 AM 57.4 °F 54.7 °F 91% 29.88 in 10.0 mi West 8.1 mph 16.1 mph N/A   Overcast
6:15 AM 55.4 °F 43.7 °F 65% 29.91 in 10.0 mi West 10.4 mph 17.3 mph N/A   Scattered Clouds
6:35 AM 54.5 °F 43.2 °F 66% 29.92 in 10.0 mi West 11.5 mph 16.1 mph N/A   Clear
6:59 AM 53.6 °F 43.9 °F 70% 29.92 in 10.0 mi West 9.2 mph - N/A   Scattered Clouds
7:17 AM 53.2 °F 44.6 °F 72% 29.94 in 10.0 mi West 5.8 mph - N/A   Scattered Clouds
7:35 AM 52.5 °F 46.0 °F 79% 29.94 in 10.0 mi West 5.8 mph - N/A   Scattered Clouds
7:36 AM 52.5 °F 46.0 °F 79% 29.94 in 10.0 mi West 4.6 mph - N/A   Scattered Clouds
7:55 AM 51.8 °F 46.9 °F 83% 29.95 in 10.0 mi WSW 4.6 mph - N/A   Scattered Clouds
7:56 AM 51.6 °F 47.1 °F 85% 29.95 in 10.0 mi WSW 4.6 mph - N/A   Scattered Clouds
8:15 AM 51.6 °F 46.6 °F 83% 29.95 in 10.0 mi WSW 4.6 mph - N/A   Scattered Clouds
8:38 AM 52.5 °F 46.0 °F 79% 29.96 in 10.0 mi WSW 4.6 mph - N/A   Overcast
8:56 AM 53.1 °F 42.8 °F 68% 29.97 in 10.0 mi West 5.8 mph - N/A   Mostly Cloudy
9:15 AM 53.8 °F 42.8 °F 66% 29.98 in 10.0 mi WSW 5.8 mph - N/A   Mostly Cloudy
9:16 AM 53.8 °F 42.8 °F 66% 29.98 in 10.0 mi WSW 4.6 mph - N/A   Scattered Clouds
9:35 AM 55.0 °F 42.3 °F 62% 29.99 in 10.0 mi West 8.1 mph - N/A   Scattered Clouds
9:59 AM 56.3 °F 41.2 °F 57% 30.00 in 10.0 mi West 9.2 mph - N/A   Clear
10:17 AM 57.2 °F 40.6 °F 54% 30.00 in 10.0 mi West 11.5 mph - N/A   Clear
10:35 AM 57.6 °F 40.5 °F 53% 30.00 in 10.0 mi WNW 12.7 mph - N/A   Scattered Clouds
10:55 AM 58.3 °F 41.9 °F 54% 30.01 in 10.0 mi West 8.1 mph 18.4 mph N/A   Scattered Clouds
11:15 AM 59.0 °F 39.7 °F 49% 30.01 in 10.0 mi WNW 11.5 mph 17.3 mph N/A   Scattered Clouds
11:20 AM 59.2 °F 40.5 °F 50% 30.01 in 10.0 mi West 9.2 mph - N/A   Scattered Clouds
11:38 AM 60.3 °F 40.3 °F 48% 30.03 in 10.0 mi West 10.4 mph - N/A   Scattered Clouds
11:56 AM 60.3 °F 40.3 °F 48% 30.04 in 10.0 mi West 15.0 mph 19.6 mph N/A   Clear
12:15 PM 61.2 °F 41.0 °F 47% 30.04 in 10.0 mi West 9.2 mph 16.1 mph N/A   Clear
12:35 PM 61.5 °F 39.7 °F 45% 30.05 in 10.0 mi West 12.7 mph 20.7 mph N/A   Clear
12:59 PM 62.1 °F 40.6 °F 45% 30.05 in 10.0 mi WSW 10.4 mph - N/A   Clear
1:17 PM 61.2 °F 39.2 °F 44% 30.05 in 10.0 mi West 8.1 mph - N/A   Clear
1:35 PM 60.8 °F 40.5 °F 47% 30.05 in 10.0 mi WSW 9.2 mph - N/A   Clear
1:36 PM 60.8 °F 40.6 °F 47% 30.05 in 10.0 mi West 8.1 mph - N/A   Clear
1:55 PM 61.7 °F 39.7 °F 44% 30.05 in 10.0 mi West 12.7 mph 20.7 mph N/A   Clear
1:56 PM 61.7 °F 39.7 °F 44% 30.05 in 10.0 mi West 12.7 mph 20.7 mph N/A   Clear
2:15 PM 62.6 °F 40.5 °F 44% 30.04 in 10.0 mi West 10.4 mph - N/A   Clear
2:38 PM 63.9 °F 40.5 °F 42% 30.04 in 10.0 mi WSW 13.8 mph - N/A   Clear
2:56 PM 63.5 °F 40.3 °F 43% 30.04 in 10.0 mi West 11.5 mph 18.4 mph N/A   Clear
3:15 PM 64.0 °F 39.0 °F 40% 30.03 in 10.0 mi West 8.1 mph - N/A   Clear
3:16 PM 64.0 °F 38.7 °F 39% 30.03 in 10.0 mi West 8.1 mph - N/A   Clear
3:35 PM 64.8 °F 36.3 °F 35% 30.03 in 10.0 mi West 10.4 mph 20.7 mph N/A   Clear
3:36 PM 64.8 °F 36.5 °F 35% 30.03 in 10.0 mi West 9.2 mph 20.7 mph N/A   Clear
3:59 PM 63.9 °F 36.3 °F 36% 30.03 in 10.0 mi WSW 12.7 mph 20.7 mph N/A   Clear
4:17 PM 63.5 °F 36.0 °F 36% 30.02 in 10.0 mi WSW 10.4 mph 18.4 mph N/A   Clear
4:35 PM 62.2 °F 37.4 °F 40% 30.03 in 10.0 mi WSW 11.5 mph 19.6 mph N/A   Clear
4:55 PM 61.3 °F 40.1 °F 46% 30.03 in 10.0 mi SW 8.1 mph - N/A   Clear
5:15 PM 60.8 °F 41.2 °F 48% 30.02 in 10.0 mi SW 11.5 mph - N/A   Clear
5:20 PM 60.8 °F 41.2 °F 48% 30.02 in 10.0 mi SW 9.2 mph - N/A   Clear
5:38 PM 60.1 °F 42.3 °F 52% 30.03 in 10.0 mi SW 9.2 mph - N/A   Clear
5:56 PM 59.9 °F 41.0 °F 50% 30.03 in 10.0 mi SW 9.2 mph - N/A   Clear
6:15 PM 59.2 °F 42.1 °F 53% 30.03 in 10.0 mi SSW 9.2 mph - N/A   Clear
6:35 PM 59.0 °F 42.4 °F 54% 30.03 in 10.0 mi SW 6.9 mph - N/A   Clear
6:59 PM 58.1 °F 43.2 °F 58% 30.03 in 10.0 mi SSW 8.1 mph - N/A   Clear
7:17 PM 57.7 °F 43.2 °F 58% 30.04 in 10.0 mi SSW 6.9 mph - N/A   Clear
7:35 PM 57.2 °F 43.3 °F 60% 30.03 in 10.0 mi SSW 6.9 mph - N/A   Clear
7:36 PM 57.2 °F 43.3 °F 60% 30.03 in 10.0 mi SSW 5.8 mph - N/A   Clear
7:55 PM 57.2 °F 43.0 °F 59% 30.02 in 10.0 mi SW 6.9 mph - N/A   Clear
7:56 PM 57.2 °F 42.8 °F 59% 30.03 in 10.0 mi SW 8.1 mph - N/A   Clear
8:15 PM 56.7 °F 43.0 °F 60% 30.03 in 10.0 mi SW 5.8 mph - N/A   Clear
8:38 PM 56.3 °F 43.3 °F 62% 30.04 in 10.0 mi SSW 4.6 mph - N/A   Clear
8:56 PM 56.3 °F 43.3 °F 62% 30.03 in 10.0 mi SSW 4.6 mph - N/A   Clear
9:15 PM 56.7 °F 43.2 °F 61% 30.04 in 10.0 mi SW 4.6 mph - N/A   Clear
9:16 PM 56.7 °F 43.2 °F 61% 30.04 in 10.0 mi SW 5.8 mph - N/A   Clear
9:35 PM 57.2 °F 42.4 °F 58% 30.05 in 10.0 mi SW 6.9 mph - N/A   Clear
9:36 PM 57.2 °F 42.4 °F 58% 30.05 in 10.0 mi SW 5.8 mph - N/A   Clear
9:59 PM 57.6 °F 42.1 °F 56% 30.05 in 10.0 mi SW 5.8 mph - N/A   Clear
10:17 PM 57.9 °F 41.7 °F 55% 30.05 in 10.0 mi SW 6.9 mph - N/A   Clear
10:35 PM 57.2 °F 41.9 °F 57% 30.05 in 10.0 mi SW 6.9 mph - N/A   Clear
10:55 PM 57.0 °F 41.5 °F 56% 30.05 in 10.0 mi SW 8.1 mph - N/A   Clear
10:56 PM 56.8 °F 41.5 °F 57% 30.06 in 10.0 mi SW 8.1 mph - N/A   Clear
11:15 PM 56.3 °F 41.7 °F 58% 30.06 in 10.0 mi SW 6.9 mph - N/A   Clear
11:20 PM 56.3 °F 41.9 °F 59% 30.06 in 10.0 mi SW 6.9 mph - N/A   Clear
11:38 PM 56.5 °F 41.9 °F 58% 30.06 in 10.0 mi SW 8.1 mph - N/A   Clear
11:56 PM 56.3 °F 41.5 °F 58% 30.06 in 10.0 mi SW 5.8 mph - N/A   Clear